STARLINK-1024 (44729 NORAD) Tracking and Keplerian Element Data

This shows tracking and keplerian element data for the satellite.

Feedback or suggestion? Click here.




ElementValue
Catalog44729
NameSTARLINK-1024
Epoch Orbit161
Epoch Day93.91667824
Epoch Year2020
RAAN213.6368
Inclination52.9994
Eccentricity0.0001271
Argument of Perigee103.6732
Mean Anonmoly134.6537
Mean Motion15.05603709
Decay Rate-0.00017945
L11 44729U 19074S 20093.91667824 -.00017945 00000-0 -12148-2 0 9990
L22 44729 52.9994 213.6368 0001271 103.6732 134.6537 15.05603709 1611

Live tracking and technical data element details for STARLINK-1024 (NORAD 44729). STARLINK-1024 can be tracked NOW for your location showing map with azimuth and elevation plus other details from your city location.

Track the satellite on the map from your city or location and see movement details for azimuth, elevation, latitude, longitude, range, height, and movement on the map or in text.







IsCatalogInMostPopularTable: catalog: 44729, numindb: 25
Update: records affected: 1



GetName: 44729 STARLINK-1024

Hit Count: updated at: Sun, 05 Apr 2020 18:58:00 GMT